Back to catalog

SL-12 R/B(2)

AliveGEO
NORAD 15487·ROCKET BODY·🇷🇺 Russia

Launched Jan 18, 1985 from Baikonur Cosmodrome

Loading…

TLE

FreshSource: Space-Track

Epoch: Sep 14, 2026, 08:38 UTC

1 15487U 85007D   26257.36009174 -.00000038  00000-0  00000-0 0  9999
2 15487   7.5692 310.3791 0018471 303.3583 223.1490  1.03023728156634

Track SL-12 R/B(2) in real time with AllMySat

Download on the App Store